• En España
  • Lista de países
  • Para 7 días
  • Temperatura del agua
  • Mapa Satelital
  • El tiempo en el mapa
  • Informadores
  • user-avatar
    Iniciar sesión

    Tiempo cada hora Stepanakert

    Hoy, 21 Octubre, Sábado

    Tiempo Temperatura Precipitaciones Viento Presión Humedad
    00:00 +13°C° 0 mm 1 mps 695 mmHg 59%
    01:00 +13°C° 0 mm 1 mps 694 mmHg 59%
    02:00 +12°C° 0 mm 1 mps 694 mmHg 59%
    03:00 +12°C° 0 mm 1 mps 694 mmHg 60%
    04:00 +12°C° 0 mm 1 mps 694 mmHg 59%
    05:00 +12°C° 0 mm 1 mps 694 mmHg 59%
    06:00 +11°C° 0 mm 1 mps 694 mmHg 59%
    07:00 +13°C° 0 mm 1 mps 694 mmHg 56%
    08:00 +15°C° 0 mm 1 mps 694 mmHg 52%
    09:00 +16°C° 0 mm 1 mps 694 mmHg 49%
    10:00 +18°C° 0 mm 1 mps 694 mmHg 47%
    11:00 +18°C° 0 mm 2 mps 694 mmHg 45%
    12:00 +19°C° 0 mm 2 mps 694 mmHg 43%
    13:00 +19°C° 0 mm 2 mps 693 mmHg 44%
    14:00 +19°C° 0 mm 2 mps 693 mmHg 45%
    15:00 +19°C° 0 mm 2 mps 693 mmHg 45%
    16:00 +19°C° 0 mm 1 mps 692 mmHg 53%
    17:00 +16°C° 0 mm 1 mps 692 mmHg 60%
    18:00 +14°C° 0 mm 0 mps 692 mmHg 67%
    19:00 +14°C° 0 mm 1 mps 692 mmHg 67%
    20:00 +14°C° 0 mm 1 mps 692 mmHg 67%
    21:00 +14°C° 0 mm 1 mps 692 mmHg 67%
    22:00 +13°C° 0 mm 1 mps 692 mmHg 65%
    23:00 +13°C° 0 mm 1 mps 692 mmHg 63%

    Mañana, 22 Octubre, Domingo

    Tiempo Temperatura Precipitaciones Viento Presión Humedad
    00:00 +13°C° 0 mm 1 mps 692 mmHg 62%
    01:00 +13°C° 0 mm 1 mps 691 mmHg 60%
    02:00 +12°C° 0 mm 1 mps 691 mmHg 59%
    03:00 +12°C° 0 mm 1 mps 691 mmHg 57%
    04:00 +12°C° 0 mm 1 mps 691 mmHg 56%
    05:00 +12°C° 0 mm 1 mps 691 mmHg 55%
    06:00 +11°C° 0 mm 1 mps 691 mmHg 53%
    07:00 +13°C° 0 mm 1 mps 691 mmHg 49%
    08:00 +15°C° 0 mm 1 mps 691 mmHg 45%
    09:00 +18°C° 0 mm 1 mps 692 mmHg 41%
    10:00 +18°C° 0 mm 2 mps 691 mmHg 39%
    11:00 +19°C° 0 mm 2 mps 691 mmHg 36%
    12:00 +20°C° 0 mm 3 mps 691 mmHg 33%
    13:00 +20°C° 0 mm 3 mps 690 mmHg 33%
    14:00 +20°C° 0 mm 3 mps 690 mmHg 33%
    15:00 +20°C° 0 mm 3 mps 690 mmHg 33%
    16:00 +18°C° 0 mm 2 mps 689 mmHg 39%
    17:00 +16°C° 0 mm 1 mps 689 mmHg 45%
    18:00 +15°C° 0 mm 1 mps 689 mmHg 50%
    19:00 +14°C° 0 mm 1 mps 689 mmHg 50%
    20:00 +14°C° 0 mm 1 mps 689 mmHg 50%
    21:00 +14°C° 0 mm 1 mps 689 mmHg 50%
    22:00 +13°C° 0 mm 1 mps 689 mmHg 49%
    23:00 +13°C° 0 mm 2 mps 689 mmHg 49%

    Pasado mañana, 23 Octubre, Lunes

    Tiempo Temperatura Precipitaciones Viento Presión Humedad
    00:00 +13°C° 0 mm 2 mps 689 mmHg 48%
    01:00 +13°C° 0 mm 2 mps 689 mmHg 47%
    02:00 +12°C° 0 mm 2 mps 689 mmHg 47%
    03:00 +12°C° 0 mm 2 mps 689 mmHg 46%
    04:00 +12°C° 0 mm 2 mps 690 mmHg 46%
    05:00 +12°C° 0 mm 2 mps 690 mmHg 46%
    06:00 +10°C° 0 mm 2 mps 690 mmHg 46%
    07:00 +13°C° 0 mm 2 mps 691 mmHg 42%
    08:00 +15°C° 0 mm 2 mps 692 mmHg 38%
    09:00 +17°C° 0 mm 2 mps 692 mmHg 34%
    10:00 +18°C° 0 mm 2 mps 693 mmHg 32%
    11:00 +19°C° 0 mm 2 mps 693 mmHg 31%
    12:00 +20°C° 0 mm 3 mps 693 mmHg 30%
    13:00 +20°C° 0 mm 3 mps 693 mmHg 31%
    14:00 +19°C° 0 mm 3 mps 693 mmHg 32%
    15:00 +19°C° 0 mm 3 mps 693 mmHg 33%
    16:00 +18°C° 0 mm 2 mps 693 mmHg 39%
    17:00 +16°C° 0 mm 2 mps 693 mmHg 46%
    18:00 +14°C° 0 mm 2 mps 693 mmHg 52%
    19:00 +14°C° 0 mm 2 mps 693 mmHg 58%
    20:00 +13°C° 0 mm 2 mps 693 mmHg 64%
    21:00 +12°C° 0 mm 2 mps 693 mmHg 70%
    22:00 +12°C° 0 mm 2 mps 693 mmHg 73%
    23:00 +12°C° 0 mm 2 mps 693 mmHg 75%

    24 Octubre, Martes

    Tiempo Temperatura Precipitaciones Viento Presión Humedad
    00:00 +12°C° 0 mm 2 mps 693 mmHg 77%
    01:00 +10°C° 0,1 mm 2 mps 693 mmHg 78%
    02:00 +10°C° 0,1 mm 2 mps 693 mmHg 79%
    03:00 +10°C° 0,1 mm 2 mps 693 mmHg 80%
    04:00 +11°C° 0 mm 1 mps 693 mmHg 79%
    05:00 +11°C° 0 mm 1 mps 693 mmHg 79%
    06:00 +11°C° 0 mm 1 mps 693 mmHg 79%
    07:00 +12°C° 0 mm 1 mps 694 mmHg 75%
    08:00 +13°C° 0 mm 1 mps 694 mmHg 70%
    09:00 +14°C° 0 mm 1 mps 694 mmHg 66%
    10:00 +15°C° 0 mm 2 mps 694 mmHg 62%
    11:00 +16°C° 0 mm 2 mps 694 mmHg 59%
    12:00 +17°C° 0 mm 2 mps 694 mmHg 55%
    13:00 +17°C° 0 mm 2 mps 694 mmHg 55%
    14:00 +17°C° 0 mm 2 mps 694 mmHg 55%
    15:00 +17°C° 0 mm 2 mps 693 mmHg 55%
    16:00 +16°C° 0 mm 2 mps 694 mmHg 61%
    17:00 +15°C° 0 mm 1 mps 694 mmHg 67%
    18:00 +14°C° 0 mm 1 mps 694 mmHg 73%
    19:00 +13°C° 0 mm 1 mps 694 mmHg 72%
    20:00 +13°C° 0 mm 1 mps 695 mmHg 71%
    21:00 +13°C° 0 mm 1 mps 695 mmHg 71%
    22:00 +13°C° 0 mm 1 mps 695 mmHg 71%
    23:00 +12°C° 0 mm 1 mps 695 mmHg 70%

    25 Octubre, Miércoles

    Tiempo Temperatura Precipitaciones Viento Presión Humedad
    00:00 +12°C° 0 mm 1 mps 695 mmHg 70%
    01:00 +12°C° 0 mm 1 mps 695 mmHg 71%
    02:00 +12°C° 0 mm 1 mps 695 mmHg 71%
    03:00 +12°C° 0 mm 1 mps 695 mmHg 72%
    04:00 +12°C° 0 mm 1 mps 695 mmHg 72%
    05:00 +12°C° 0 mm 1 mps 696 mmHg 72%
    06:00 +12°C° 0 mm 1 mps 696 mmHg 72%
    07:00 +13°C° 0 mm 1 mps 696 mmHg 67%
    08:00 +15°C° 0 mm 1 mps 697 mmHg 63%
    09:00 +16°C° 0 mm 1 mps 697 mmHg 58%
    10:00 +17°C° 0 mm 2 mps 697 mmHg 55%
    11:00 +18°C° 0 mm 2 mps 697 mmHg 53%
    12:00 +19°C° 0 mm 2 mps 696 mmHg 50%
    13:00 +19°C° 0 mm 2 mps 696 mmHg 51%
    14:00 +19°C° 0 mm 2 mps 696 mmHg 52%
    15:00 +19°C° 0 mm 2 mps 696 mmHg 53%
    16:00 +18°C° 0 mm 2 mps 696 mmHg 60%
    17:00 +16°C° 0 mm 1 mps 696 mmHg 67%
    18:00 +15°C° 0 mm 1 mps 696 mmHg 74%
    19:00 +15°C° 0 mm 1 mps 696 mmHg 75%
    20:00 +14°C° 0 mm 1 mps 697 mmHg 75%
    21:00 +14°C° 0 mm 1 mps 697 mmHg 76%
    22:00 +14°C° 0 mm 1 mps 697 mmHg 76%
    23:00 +13°C° 0 mm 1 mps 697 mmHg 77%

    26 Octubre, Jueves

    Tiempo Temperatura Precipitaciones Viento Presión Humedad
    00:00 +13°C° 0 mm 1 mps 697 mmHg 77%
    01:00 +13°C° 0 mm 1 mps 697 mmHg 77%
    02:00 +13°C° 0 mm 1 mps 696 mmHg 77%
    03:00 +13°C° 0 mm 1 mps 696 mmHg 77%
    04:00 +13°C° 0 mm 1 mps 696 mmHg 76%
    05:00 +13°C° 0 mm 1 mps 696 mmHg 75%
    06:00 +12°C° 0 mm 1 mps 696 mmHg 75%
    07:00 +14°C° 0 mm 1 mps 697 mmHg 71%
    08:00 +15°C° 0 mm 1 mps 697 mmHg 67%
    09:00 +17°C° 0 mm 2 mps 697 mmHg 63%
    10:00 +18°C° 0 mm 2 mps 697 mmHg 60%
    11:00 +19°C° 0 mm 2 mps 696 mmHg 57%
    12:00 +20°C° 0 mm 3 mps 696 mmHg 54%
    13:00 +20°C° 0 mm 3 mps 696 mmHg 55%
    14:00 +20°C° 0 mm 2 mps 695 mmHg 55%
    15:00 +20°C° 0 mm 2 mps 695 mmHg 55%
    16:00 +18°C° 0 mm 2 mps 694 mmHg 62%
    17:00 +18°C° 0 mm 1 mps 694 mmHg 68%
    18:00 +15°C° 0 mm 1 mps 694 mmHg 74%
    19:00 +15°C° 0 mm 1 mps 694 mmHg 73%
    20:00 +15°C° 0 mm 1 mps 694 mmHg 73%
    21:00 +15°C° 0 mm 1 mps 694 mmHg 72%
    22:00 +15°C° 0 mm 1 mps 694 mmHg 72%
    23:00 +14°C° 0 mm 1 mps 694 mmHg 72%
    Mostrar más